Regional Weather Roundup
Issued by NWS

Home | Current Version | Previous Version | Graphics & Text | Print | Product List | Glossary On
Versions: 1 2 3 4 5 6 7 8 9 10 11 12 13 14 15 16 17 18 19 20 21 22 23 24 25 26 27 28 29 30 31 32 33 34 35 36 37 38 39 40 41 42 43 44 45 46 47 48 49 50
000
ASUS43 KDTX 041910
RWRMI
MICHIGAN HOURLY REGIONAL WEATHER ROUNDUP
NATIONAL WEATHER SERVICE DETROIT/PONTIAC MI
ISSUED BY NATIONAL WEATHER SERVICE GRAND RAPIDS MI
300 PM EDT FRI SEP 04 2015

NOTE: "FAIR" INDICATES FEW OR NO CLOUDS BELOW 12,000 FEET WITH NO
SIGNIFICANT WEATHER AND/OR OBSTRUCTION TO VISIBILITY.

MIZ047>049-052>055-059>063-066>070-074>076-081>083-042000-
SOUTHEAST LOWER MICHIGAN

CITY           SKY/WX    TMP DP  RH WIND       PRES   REMARKS
ADRIAN         SUNNY     85  64  49 W10       30.02S
ANN ARBOR      MOSUNNY   81  69  67 CALM      30.02S
BAD AXE        PTSUNNY   79  69  73 SE8       30.05S
DETROIT CITY   PTSUNNY   80  70  71 SE7       30.03S
DETROIT        MOSUNNY   81  71  71 CALM      30.02S
FLINT          PTSUNNY   79  68  69 SE6       30.03S
GROSSE ILE     MOSUNNY   81  72  74 E3        30.01S
HILLSDALE      MOSUNNY   82  69  63 W6        30.04S
HOWELL         CLOUDY    77  66  67 SW7       30.03S

CITY           SKY/WX    TMP DP  RH WIND       PRES   REMARKS
JACKSON        MOSUNNY   80  68  66 NW6       30.03S
LANSING        CLOUDY    76  67  73 NW6       30.03S
MASON          CLOUDY    79  64  60 W6        30.04R
MONROE         CLOUDY    80  72  75 NE3       30.01S
MT. CLEMENS    PTSUNNY   78  70  76 SE9       30.02S
PONTIAC        PTSUNNY   77  69  76 VRB3      30.03S
PORT HOPE        N/A     73  70  90 E15       30.04F
PORT HURON     MOSUNNY   81  70  69 SE12      30.04S
TRI CITIES     PTSUNNY   78  69  73 SE12      30.03S
YPSILANTI      PTSUNNY   84  69  60 S5        30.03S
$$
MIZ043>046-050>051-056>058-064>065-071>073-077>080-042000-
SOUTHWEST LOWER MICHIGAN

CITY           SKY/WX    TMP DP  RH WIND       PRES   REMARKS
BATTLE CREEK   MOSUNNY   80  64  58 W7        30.04R
BENTON HARBOR  SUNNY     75  67  76 VRB3      30.03S
BIG RAPIDS     CLOUDY    73  68  86 CALM      30.04S
COLDWATER      PTSUNNY   77  67  70 W3        30.04R
HOLLAND        MOSUNNY   76  66  71 W8        30.03F
GRAND RAPIDS   CLOUDY    76  67  73 NW7       30.03S
KALAMAZOO      PTSUNNY   79  65  62 W6        30.03S
MARSHALL       PTSUNNY   82  65  56 SW6       30.03R
MOUNT PLEASANT CLOUDY    73  70  90 NE3       30.03S FOG
MUSKEGON       CLOUDY    72  65  78 SW6       30.03F
STURGIS        CLOUDY    75  70  83 CALM      30.03S
$$
MIZ016>042-042000-
NORTHERN LOWER MICHIGAN

CITY           SKY/WX    TMP DP  RH WIND       PRES   REMARKS
ALPENA         SUNNY     78  68  71 SE9       30.07F
BEAVER ISLAND  CLOUDY    75  66  74 E9        30.08R
BELLAIRE       CLOUDY    74  68  80 CALM      30.05S
CADILLAC       DRIZZLE   69  67  93 CALM      30.06R
CHARLEVOIX     CLOUDY    72  69  90 NE7       30.10S FOG
GAYLORD        CLOUDY    73  68  84 SE6       30.08S
HOUGHTON LAKE  CLOUDY    71  67  87 E8        30.06S
MANISTEE       CLOUDY    70  64  83 NW7       30.05R
OSCODA         SUNNY     75  69  81 E10       30.05F
PELLSTON       CLOUDY    77  67  71 NE9       30.07S
TRAVERSE CITY  CLOUDY    73  67  81 N6        30.04S
LUDINGTON      CLOUDY    73  69  86 N8        30.04R
$$
MIZ007>008-015-042000-
EASTERN UPPER MICHIGAN

CITY           SKY/WX    TMP DP  RH WIND       PRES   REMARKS
KINROSS        PTSUNNY   79  66  65 E13       30.10S
MACKINAC ISLAN SUNNY     70  65  86 E12G18    30.09S
NEWBERRY       PTSUNNY   82  66  58 SE9G17    30.09S
S. S. MARIE    MOSUNNY   78  66  66 E8        30.10S
$$
MIZ004>006-011>014-085-042000-
CENTRAL UPPER MICHIGAN

CITY           SKY/WX    TMP DP  RH WIND       PRES   REMARKS
MANISTIQUE     MOSUNNY   77  67  70 SE10      30.08S
ESCANABA       MOSUNNY   77  63  61 E8        30.05S
MENOMINEE      CLOUDY    73  63  68 E10       30.05S
$$
MIZ001>003-009>011-084-042000-
WESTERN UPPER MICHIGAN

CITY           SKY/WX    TMP DP  RH WIND       PRES   REMARKS
IRON MOUNTAIN  SUNNY     81  64  56 E5        30.06F
HOUGHTON       SUNNY     78  58  49 E12       30.07F
COPPER HARBOR    N/A     80  56  43 VRB5      30.06F
IRONWOOD       SUNNY     82  64  54 SE8       29.99F
$$

ABBREVIATIONS USED IN REMARKS
   TC - TEMPERATURE IN CELSIUS
  WCI - WIND CHILL INDEX
   HX - HEAT INDEX
  VSB - VISIBILITY




USA.gov is the U.S. government's official web portal to all federal, state and local government web resources and services.